Regional Weather Roundup
Issued by NWS Albany, NY

Home | Current Version | Previous Version | Text Only | Print | Product List | Glossary On
Versions: 1 2 3 4 5 6 7 8 9 10 11 12 13 14 15 16 17 18 19 20 21 22 23 24 25 26 27
000
ASUS41 KALY 240310
RWRALY

NEW YORK STATE HOURLY WEATHER ROUNDUP
NATIONAL WEATHER SERVICE ALBANY NY
1100 PM EDT THU OCT 23 2014

NOTE: "FAIR" INDICATES FEW OR NO CLOUDS BELOW 12,000 FEET WITH NO
SIGNIFICANT WEATHER AND/OR NO OBSTRUCTIONS TO VISIBILITY.

NYZ032-033-038>043-046>054-057>066-NYZ062>081-240400-
EAST


CITY           SKY/WX    TMP DP  RH WIND       PRES   REMARKS
ALBANY         CLOUDY    48  46  93 N6        29.84S
GLENS FALLS    CLOUDY    46  43  89 NE3       29.84F
POUGHKEEPSIE   CLOUDY    51  45  79 N9        29.80S
NEWBURGH       CLOUDY    48  48 100 CALM      29.81F
MONTGOMERY     LGT RAIN  49  48  97 W3        29.80S
WHITE PLAINS   MOCLDY    50  44  80 NW15      29.76R
ISLIP          CLOUDY    51  47  86 N17G26    29.70S
NEW YORK CITY  CLOUDY    53  47  79 NW9       29.77S
CENTRAL PARK   CLOUDY    53  44  71 VRB5      29.80F
$$

NYZ005>009-017-018-044>046-055-056-240400-
CENTRAL


CITY           SKY/WX    TMP DP  RH WIND       PRES   REMARKS
FULTON         CLOUDY    50  44  80 N9        29.96F
SYRACUSE       CLOUDY    49  45  86 NW7       29.95F
ROME           CLOUDY    46  43  89 NW9       29.92F
ELMIRA         LGT RAIN  51  49  92 N6        29.96S FOG
BINGHAMTON     CLOUDY    45  44  97 N14       29.90S
MONTICELLO     CLOUDY    45  39  81 NW12G18   29.84F
$$

NYZ026>034-041>043-240400-
NORTH


CITY           SKY/WX    TMP DP  RH WIND       PRES   REMARKS
WATERTOWN      CLOUDY    49  40  71 NE13      29.96F
FORT DRUM      NOT AVBL
MASSENA        CLOUDY    47  42  83 NE9       29.97F
SARANAC LAKE   CLOUDY    40  38  93 N5        29.88S
PLATTSBURGH    CLOUDY    43  42  97 N14       29.90F
$$

NYZ001>004-010>016-019>021-240400-
WEST


CITY           SKY/WX    TMP DP  RH WIND       PRES   REMARKS
NIAGARA FALLS  CLEAR     47  40  76 NW7       30.04S
BUFFALO        PTCLDY    49  39  68 NW7       30.04R
DUNKIRK        CLEAR     51  39  63 N7        30.06S
JAMESTOWN      CLEAR     45  43  93 N6        30.05R
WELLSVILLE     CLOUDY    48  41  76 NW13      30.00S
ROCHESTER      CLOUDY    55  47  74 NW8       30.01S
PENN YAN       CLOUDY    51  46  83 VRB3      29.98S
$$

             KEY
       WCI = WIND CHILL INDEX
       VSB = VISIBILITY
       HX  = HEAT INDEX
$$



USA.gov is the U.S. government's official web portal to all federal, state and local government web resources and services.